Weather Service Report


442 
ASUS45 KABQ 011510
RWRNM 
WEATHER ROUNDUP FOR NEW MEXICO
NATIONAL WEATHER SERVICE ALBUQUERQUE NM
900 AM MDT FRI AUG 01 2014

NOTE: "FAIR" MEANS FEW OR NO CLOUDS BELOW 12,000 FEET AGL WITH NO
       SIGNIFICANT WEATHER OR OBSTRUCTIONS TO VISION.

      THIS PRODUCT IS RELEASED AS TWO VERSIONS.  ONE VERSION NEAR
      THE TOP OF THE HOUR CONTAINING PRELIMINARY DATA FROM ALBUQUERQUE
      AND OTHER STATIONS.  A FINAL VERSION WITH ADDITIONAL DATA IS 
      ISSUED ABOUT 10 MINUTES AFTER THE HOUR.
 
NMZ501-503-504-510>518-011600-
NORTHWEST PLATEAU/NORTHCENTRAL MOUNTAINS
  
CITY           SKY/WX    TMP DP  RH WIND       PRES   REMARKS
FARMINGTON     SUNNY     67  54  63 E8        30.26S                  
LOS ALAMOS     CLOUDY    57  51  81 S5        30.41S                  
SANTA FE       PTSUNNY   63  55  75 N6        30.35S                  
TAOS           PTSUNNY   57  50  77 SW3       30.41S                  
ANGEL FIRE     CLOUDY    50  48  93 CALM      30.48R                  

$$
NMZ402-403-502-505>509-011600-
WESTCENTRAL MOUNTAINS/SOUTHWEST MOUNTAINS
  
CITY           SKY/WX    TMP DP  RH WIND       PRES   REMARKS
GALLUP         CLOUDY    64  54  69 CALM      30.33R                  
SILVER CITY    PTSUNNY   64  61  88 CALM      30.30S                  

$$
NMZ407-409-411-412-011600-
SOUTHERN DESERTS
  
CITY           SKY/WX    TMP DP  RH WIND       PRES   REMARKS
LORDSBURG      FAIR      70  61  73 SE7       30.22R                  
DEMING         CLOUDY    68  63  84 CALM      30.22R                  
LAS CRUCES     CLOUDY    66  64  93 NE5       30.25S                  
HOLLOMAN AFB   CLOUDY    66  66 100 N5        30.21S                  
ALAMOGORDO     PTSUNNY   66  64  94 N7        30.23S                  
T OR C         CLOUDY    67  59  75 SE3       30.24R                  

$$
NMZ519>523-011600-
CENTRAL VALLEYS/CENTRAL HIGHLANDS
  
CITY           SKY/WX    TMP DP  RH WIND       PRES   REMARKS
ALBUQUERQUE    MOSUNNY   68  54  60 N5        30.30R                  
DOUBLE EAGLE   PTSUNNY   64  55  72 CALM      30.33R                  
MORIARTY ARPT  CLOUDY    61  54  76 S5        30.36F                  
CLINES CORNERS MOSUNNY   58  53  84 SE5       30.37S                  
BELEN          FAIR      65  58  77 W5        30.29S                  
SOCORRO        PTSUNNY   67  57  70 CALM      30.27S                  

$$
NMZ524>526-539-540-011600-
SOUTHCENTRAL MOUNTAINS
  
CITY           SKY/WX    TMP DP  RH WIND       PRES   REMARKS
RUIDOSO        CLOUDY    57  54  88 S3        30.39R                  

$$
NMZ527>531-011600-
NORTHEAST HIGHLANDS/NORTHEAST PLAINS
  
CITY           SKY/WX    TMP DP  RH WIND       PRES   REMARKS
LAS VEGAS      SUNNY     60  53  77 NW3       30.39R                  
RATON          CLOUDY    61  55  81 CALM      30.35S                  
CLAYTON        CLOUDY    65  54  67 SW7       30.30R                  

$$
NMZ532>537-011600-
EASTCENTRAL PLAINS
  
CITY           SKY/WX    TMP DP  RH WIND       PRES   REMARKS
TUCUMCARI      CLOUDY    71  60  68 S3        30.24R                  
CANNON AFB     CLOUDY    66  59  78 W5        30.27R                  
CLOVIS AIRPORT NOT AVBL                                               

$$
NMZ028-029-538-011600-
SOUTHEAST PLAINS
  
CITY           SKY/WX    TMP DP  RH WIND       PRES   REMARKS
ROSWELL        CLOUDY    70  63  78 N8        30.22S                  
ARTESIA        CLOUDY    68  64  88 NE6       30.23R                  
CARLSBAD       CLOUDY    72  63  73 S12       30.20R                  
HOBBS          PTSUNNY   68  59  73 SE6       30.23R                  


$$

Return to Home page


Western Regional Climate Center, wrcc@dri.edu